Simultaneous Nadir Overpasses (SNOs) Predictions

Prediction of SNOs between LANDSAT-8 and NOAA-19 Satellite Orbit:

Table of predicted SNOs for the next 14.0 days since TLE Epoch: 1/5/2025
Index Date (LANDSAT-8) Time (LANDSAT-8) Lat,Lon (LANDSAT-8) SZA (LANDSAT-8 ) Date (NOAA-19) Time (NOAA-19) Lat,Lon (NOAA-19) SZA (NOAA-19 ) Distance(km) Time Diff (sec)
1 01/05/2025 04:20:28 80.10, 143.25 103.66 01/05/2025 04:21:36 80.11, 143.40 103.70 3.22 68
2 01/07/2025 09:54:19 -79.92,-121.65 76.91 01/07/2025 09:53:09 -79.92,-121.68 76.93 0.60 70
3 01/07/2025 10:43:42 80.03, 46.87 103.26 01/07/2025 10:44:01 80.04, 46.96 103.28 1.80 19
4 01/09/2025 17:06:55 79.97, -49.46 102.83 01/09/2025 17:06:26 79.96, -49.58 102.80 2.54 29
5 01/09/2025 17:56:19 -80.07, 119.06 77.02 01/09/2025 17:57:23 -80.06, 118.92 77.02 2.97 64
6 01/12/2025 00:19:31 -80.01, 22.76 77.48 01/12/2025 00:19:47 -80.01, 22.76 77.48 0.27 16
7 01/14/2025 06:42:43 -79.92, -73.79 78.02 01/14/2025 06:42:12 -79.92, -73.81 78.03 0.41 31
8 01/14/2025 07:32:06 80.02, 94.68 102.13 01/14/2025 07:33:03 80.02, 94.61 102.14 1.27 57
9 01/16/2025 13:55:16 79.96, -1.58 101.60 01/16/2025 13:55:26 79.96, -1.62 101.60 0.76 10
10 01/18/2025 20:18:26 79.87, -98.09 101.00 01/18/2025 20:17:50 79.87, -98.24 100.97 3.10 36



Historial Predications of SNOs between LANDSAT-8 and NOAA-19
